Location: Los Gatos B&B
(42.6926°N, 77.0646°W)
Time: 10:00:44
(UTC-04:00)

Amateur Radio Satellites - All Passes

Search period start: 25 September 2016 09:30
Search period end: 26 September 2016 09:30
Location: Los Gatos B&B, 42.6926°N, 77.0646°W

Satellite Date Start Highest point End Downlink Frequencies (MHz)
Time Altitude Azimuth
CINEMA 3 25 Sep 09:35:20 09:39:08 35° 289° (WNW) 09:42:58 145.822/145.860
FUNcube-1 25 Sep 09:47:49 09:51:41 32° 97° (E) 09:55:37 145.935
AAUSAT CUBESAT 2 25 Sep 09:48:06 09:52:20 88° 107° (ESE) 09:56:31 437.432
UWE-3 25 Sep 09:51:24 09:55:37 60° 101° (E) 09:59:57 435.000/436.395/437.385
UNISAT 6 25 Sep 09:57:48 10:01:41 34° 70° (ENE) 10:05:33 437.425
DELFI C3 25 Sep 10:00:34 10:03:20 18° 93° (E) 10:06:03 145.870
BEESAT 3 25 Sep 10:10:42 10:14:13 29° 48° (NE) 10:17:42 437.485
Cosmos 2499 25 Sep 10:12:57 10:20:08 68° 280° (W) 10:27:11 435.465 / 435.565
GONETS M04 25 Sep 10:14:01 10:22:45 64° 282° (WNW) 10:31:34
JAS-2 25 Sep 10:18:59 10:22:17 14° 50° (NE) 10:25:45 435.910
ZACube-1 25 Sep 10:27:48 10:32:05 85° 287° (WNW) 10:36:29 437.345
PRISM 25 Sep 10:29:31 10:31:33 13° 269° (W) 10:33:37 437.425
COMPASS 1 25 Sep 10:29:49 10:33:21 26° 292° (WNW) 10:36:51 437.405
POPSAT HIP 1 25 Sep 10:30:00 10:30:50 11° 61° (ENE) 10:31:41 437.405
Oscar 11 25 Sep 10:31:48 10:36:11 81° 284° (WNW) 10:40:32 145.826/435.025
ANTELSAT 25 Sep 10:32:52 10:37:09 83° 76° (ENE) 10:41:26 437.575/2403.000
NANOSAT C BR1 25 Sep 10:46:39 10:49:09 16° 64° (ENE) 10:51:37 145.865
SEEDS 25 Sep 10:54:16 10:55:45 12° 298° (WNW) 10:57:13 437.485
TIGRISAT 25 Sep 10:54:23 10:58:36 60° 259° (W) 11:02:49 435.000
BEESAT 2 25 Sep 10:59:39 11:03:32 44° 52° (NE) 11:07:23 435.950
CUBEBUG 2 25 Sep 11:04:30 11:07:08 16° 295° (WNW) 11:09:48 437.445
QB50P2 25 Sep 11:05:53 11:09:26 27° 68° (ENE) 11:13:01 145.880/145.840
POLYITAN 1 25 Sep 11:08:08 11:11:41 27° 68° (ENE) 11:15:15 437.675
HUMSAT D 25 Sep 11:15:00 11:19:12 62° 101° (E) 11:23:26 437.325/437.525
HO-68 25 Sep 11:17:40 11:22:15 19° 307° (NW) 11:26:50 435.675
FUNcube-1 25 Sep 11:24:21 11:27:47 24° 292° (WNW) 11:31:16 145.935
UWE-3 25 Sep 11:29:29 11:31:38 14° 297° (WNW) 11:33:48 435.000/436.395/437.385
DELFI C3 25 Sep 11:34:34 11:38:17 36° 289° (WNW) 11:41:59 145.870
UNISAT 6 25 Sep 11:35:13 11:38:29 21° 266° (W) 11:41:45 437.425
BEESAT 3 25 Sep 11:48:23 11:51:49 28° 245° (WSW) 11:55:13 437.485
QB50P1 25 Sep 11:48:33 11:52:45 76° 75° (ENE) 11:56:57 145.935-145.965
DUCHIFAT 1 25 Sep 11:49:49 11:53:58 68° 75° (ENE) 11:58:09 145.980
JAS-2 25 Sep 11:59:33 12:05:50 69° 72° (ENE) 12:13:00 435.910
POPSAT HIP 1 25 Sep 12:01:46 12:06:00 78° 259° (W) 12:10:13 437.405
BUGSAT 1 25 Sep 12:04:54 12:08:46 40° 71° (ENE) 12:12:36 437.445
PHONESAT 2.4 25 Sep 12:07:57 12:09:48 15° 153° (SSE) 12:11:39 2401.200-2431.200
AISAT 25 Sep 12:11:42 12:14:58 20° 93° (E) 12:18:13 437.250
Cosmos 2499 25 Sep 12:12:44 12:14:44 11° 302° (WNW) 12:16:44 435.465 / 435.565
GONETS M04 25 Sep 12:17:43 12:21:39 13° 305° (NW) 12:25:36
NANOSAT C BR1 25 Sep 12:20:24 12:24:28 49° 260° (W) 12:28:34 145.865
50 SAT 25 Sep 12:22:56 12:25:51 22° 95° (E) 12:28:44 437.505
SPROUT 25 Sep 12:27:00 12:29:30 15° 91° (E) 12:32:00 437.525
UKube-1 25 Sep 12:35:00 12:37:42 16° 92° (E) 12:40:24 .
BEESAT 2 25 Sep 12:38:18 12:41:01 18° 249° (WSW) 12:43:43 435.950
PCSat 25 Sep 12:40:04 12:42:34 13° 35° (NE) 12:45:05 145.827
QB50P2 25 Sep 12:41:38 12:45:11 26° 265° (W) 12:48:45 145.880/145.840
ESTCUBE 1 25 Sep 12:42:46 12:47:21 85° 106° (ESE) 12:51:52 437.505/2401.250
POLYITAN 1 25 Sep 12:43:54 12:47:26 26° 265° (W) 12:50:59 437.675
Oscar 19 25 Sep 12:47:41 12:52:03 28° 65° (ENE) 12:56:27 437.125/150
HUMSAT D 25 Sep 12:52:20 12:54:19 13° 297° (WNW) 12:56:20 437.325/437.525
VELOX 1 25 Sep 12:54:50 12:59:10 55° 100° (E) 13:03:28 145.980
AIST 2 25 Sep 12:56:37 13:00:23 31° 48° (NE) 13:04:07 435.215
DX 1 25 Sep 12:56:54 13:00:55 36° 98° (E) 13:04:54 434.975-435.025
M-CUBED/EXP-1 PRIME 25 Sep 13:00:11 13:03:08 30° 103° (ESE) 13:06:02 437.505
CUBEBUG 1 25 Sep 13:06:48 13:11:10 83° 284° (WNW) 13:15:29 437.445
Gurwin Techsat 1B 25 Sep 13:22:02 13:26:31 29° 65° (ENE) 13:31:00 435.225
DUCHIFAT 1 25 Sep 13:29:28 13:30:06 10° 271° (W) 13:30:45 145.980
ITAMSAT 1 25 Sep 13:37:31 13:39:17 12° 56° (ENE) 13:41:03 435.822/435.867
BUGSAT 1 25 Sep 13:41:37 13:44:18 17° 267° (W) 13:46:59 437.445
PHONESAT 2.4 25 Sep 13:42:42 13:45:32 43° 169° (S) 13:48:23 2401.200-2431.200
JAS-2 25 Sep 13:46:55 13:51:38 21° 273° (W) 13:56:46 435.910
AISAT 25 Sep 13:47:30 13:51:35 38° 290° (WNW) 13:55:38 437.250
50 SAT 25 Sep 13:56:16 13:59:18 24° 291° (WNW) 14:02:19 437.505
TISAT 1 25 Sep 13:57:02 14:00:40 28° 96° (E) 14:04:17 437.305
AUBIESAT-1 25 Sep 13:59:36 14:02:49 49° 292° (WNW) 14:06:00 437.475
SPROUT 25 Sep 14:01:37 14:05:42 47° 288° (WNW) 14:09:47 437.525
Cosmos 2491 25 Sep 14:03:50 14:09:21 19° 77° (ENE) 14:14:52 435.465 / 435.565
YUBILEINY 25 Sep 14:05:20 14:13:27 41° 72° (ENE) 14:21:31 435.215
UKube-1 25 Sep 14:09:51 14:14:00 46° 289° (WNW) 14:18:06 .
AO-7 25 Sep 14:18:56 14:25:45 29° 55° (NE) 14:32:33 29.400- 29.500
PCSat 25 Sep 14:21:45 14:27:08 60° 56° (ENE) 14:32:29 145.827
ESTCUBE 1 25 Sep 14:22:05 14:23:27 11° 301° (WNW) 14:24:48 437.505/2401.250
Oscar 19 25 Sep 14:26:24 14:31:13 38° 262° (W) 14:36:04 437.125/150
ITUPSAT 1 25 Sep 14:28:34 14:30:45 13° 90° (E) 14:32:55 437.325
VELOX 1 25 Sep 14:32:35 14:35:11 16° 297° (WNW) 14:37:47 145.980
DX 1 25 Sep 14:33:34 14:36:53 22° 295° (WNW) 14:40:13 434.975-435.025
AIST 2 25 Sep 14:35:09 14:38:48 29° 245° (WSW) 14:42:25 435.215
M-CUBED/EXP-1 PRIME 25 Sep 14:35:30 14:37:27 15° 300° (WNW) 14:39:24 437.505
SWISSCUBE 25 Sep 14:42:07 14:45:42 20° 93° (E) 14:49:15 437.505
Cosmos 2504 25 Sep 14:50:58 14:57:13 29° 70° (ENE) 15:03:43 435.465 / 435.565
BEESAT 25 Sep 14:55:10 14:59:06 25° 95° (E) 15:03:00 436.000
Gurwin Techsat 1B 25 Sep 15:01:21 15:06:17 39° 262° (W) 15:11:15 435.225
ITAMSAT 1 25 Sep 15:12:44 15:17:54 82° 74° (ENE) 15:23:07 435.822/435.867
PHONESAT 2.4 25 Sep 15:18:36 15:21:30 52° 186° (S) 15:24:25 2401.200-2431.200
TISAT 1 25 Sep 15:32:47 15:36:12 25° 293° (WNW) 15:39:35 437.305
Cosmos 2491 25 Sep 15:56:05 16:04:52 90° 160° (SSE) 16:13:46 435.465 / 435.565
KKS-1 25 Sep 15:57:30 15:58:29 11° 89° (E) 15:59:29 437.445
YUBILEINY 25 Sep 16:02:12 16:10:18 45° 272° (W) 16:18:22 435.215
ITUPSAT 1 25 Sep 16:04:16 16:09:04 71° 286° (WNW) 16:13:51 437.325
PCSat 25 Sep 16:06:12 16:10:03 20° 254° (WSW) 16:13:52 145.827
AO-7 25 Sep 16:09:34 16:17:52 71° 254° (WSW) 16:26:11 29.400- 29.500
SO-50 25 Sep 16:11:10 16:15:51 50° 119° (ESE) 16:20:29 436.795
HORYU 2 25 Sep 16:15:34 16:18:22 17° 63° (ENE) 16:21:09 437.375
SWISSCUBE 25 Sep 16:19:07 16:23:41 44° 290° (WNW) 16:28:14 437.505
O/OREOS (USA 219) 25 Sep 16:22:28 16:23:07 10° 47° (NE) 16:23:45 437.305
AIST 1 25 Sep 16:25:32 16:29:09 25° 73° (ENE) 16:32:43
BEESAT 25 Sep 16:32:34 16:36:57 37° 291° (WNW) 16:41:20 436.000
STARS 25 Sep 16:37:37 16:39:58 14° 91° (E) 16:42:19 437.465
Cosmos 2504 25 Sep 16:43:46 16:50:55 56° 268° (W) 16:58:30 435.465 / 435.565
MOZHAYETS 4 25 Sep 16:45:44 16:50:21 59° 101° (E) 16:54:55
NOAA 15 25 Sep 16:48:19 16:50:36 13° 57° (ENE) 16:52:52 137.62
BRITE-PL 25 Sep 16:49:34 16:54:11 26° 65° (ENE) 16:58:44 437.365/2234.400
PHONESAT 2.4 25 Sep 16:54:56 16:57:21 22° 202° (SSW) 16:59:46 2401.200-2431.200
Cubesat XI-IV 25 Sep 16:55:03 16:56:50 12° 56° (NE) 16:58:38 437.490
GOMX 1 25 Sep 16:55:43 16:58:05 13° 60° (ENE) 17:00:25 467.674
CUTE-I 25 Sep 16:55:56 16:57:53 12° 56° (ENE) 16:59:51 437.470
ITAMSAT 1 25 Sep 16:55:59 16:58:00 12° 271° (W) 17:00:02 435.822/435.867
NOAA 18 25 Sep 17:12:38 17:15:41 15° 57° (ENE) 17:18:43 137.9125
KKS-1 25 Sep 17:31:07 17:35:33 73° 286° (WNW) 17:39:57 437.445
DOVE 4 25 Sep 17:31:49 17:33:23 11° 61° (ENE) 17:34:57 437.250
HORYU 2 25 Sep 17:50:13 17:54:31 51° 260° (W) 17:58:50 437.375
SO-50 25 Sep 17:52:34 17:56:35 25° 317° (NW) 18:00:33 436.795
Cosmos 2491 25 Sep 17:56:53 18:03:02 20° 299° (WNW) 18:09:15 435.465 / 435.565
CUBESAT XI-V 25 Sep 17:58:08 18:02:40 45° 98° (E) 18:07:09 437.345
O/OREOS (USA 219) 25 Sep 17:58:46 18:03:23 74° 67° (ENE) 18:07:58 437.305
AIST 1 25 Sep 18:03:04 18:06:41 26° 271° (W) 18:10:15
AO-7 25 Sep 18:08:37 18:12:02 13° 273° (W) 18:15:28 29.400- 29.500
STARS 25 Sep 18:12:23 18:16:39 54° 288° (WNW) 18:20:54 437.465
HO-68 25 Sep 18:13:32 18:17:38 16° 51° (NE) 18:21:44 435.675
MOZHAYETS 4 25 Sep 18:24:14 18:27:01 16° 297° (WNW) 18:29:48
NOAA 15 25 Sep 18:24:14 18:29:33 86° 75° (ENE) 18:34:54 137.62
BRITE-PL 25 Sep 18:26:47 18:32:18 50° 262° (W) 18:37:47 437.365/2234.400
GONETS M04 25 Sep 18:28:54 18:33:25 15° 56° (NE) 18:37:55
LilacSat-2 25 Sep 18:29:10 18:32:55 76° 76° (ENE) 18:36:42 437.200
GOMX 1 25 Sep 18:29:59 18:35:27 87° 75° (ENE) 18:40:42 467.674
Cubesat XI-IV 25 Sep 18:30:44 18:36:02 79° 74° (ENE) 18:41:23 437.490
CUTE-I 25 Sep 18:31:46 18:37:04 82° 74° (ENE) 18:42:25 437.470
NOAA 18 25 Sep 18:50:08 18:55:37 83° 254° (WSW) 19:01:08 137.9125
CINEMA 3 25 Sep 19:01:15 19:04:38 21° 67° (ENE) 19:07:56 145.822/145.860
DOVE 4 25 Sep 19:05:18 19:10:25 87° 74° (ENE) 19:15:16 437.250
RS-15 25 Sep 19:14:16 19:22:43 24° 99° (E) 19:31:27 29.354- 29.394
DANDE 25 Sep 19:16:45 19:17:47 10° 74° (ENE) 19:18:51 436.750
STRAND 1 25 Sep 19:34:30 19:38:30 22° 93° (E) 19:42:28 437.568
CUBESAT XI-V 25 Sep 19:36:17 19:39:43 20° 296° (WNW) 19:43:08 437.345
O/OREOS (USA 219) 25 Sep 19:40:44 19:42:06 11° 263° (W) 19:43:28 437.305
COMPASS 1 25 Sep 19:46:00 19:49:09 21° 67° (ENE) 19:52:19 437.405
CUSAT 1 25 Sep 19:47:28 19:53:19 64° 94° (E) 20:00:39 437.405
HO-68 25 Sep 19:57:04 20:04:13 76° 71° (ENE) 20:11:23 435.675
Cosmos 2499 25 Sep 20:01:48 20:08:51 43° 75° (ENE) 20:16:22 435.465 / 435.565
CUTE 1.7 + AOD 2 25 Sep 20:02:02 20:06:13 65° 75° (ENE) 20:10:27 437.475
CANX-2 25 Sep 20:02:42 20:06:55 77° 75° (ENE) 20:11:11 2200.000
NOAA 15 25 Sep 20:08:01 20:09:59 12° 272° (W) 20:11:59 137.62
SEEDS 25 Sep 20:08:28 20:12:32 53° 73° (ENE) 20:16:40 437.485
GOMX 1 25 Sep 20:11:57 20:14:04 12° 272° (W) 20:16:09 467.674
Cubesat XI-IV 25 Sep 20:14:16 20:16:43 13° 271° (W) 20:19:11 437.490
CUTE-I 25 Sep 20:15:28 20:17:45 13° 271° (W) 20:20:02 437.470
GONETS M04 25 Sep 20:23:19 20:32:10 69° 79° (E) 20:40:52
CUBEBUG 2 25 Sep 20:25:36 20:29:35 42° 72° (ENE) 20:33:32 437.445
NOAA 18 25 Sep 20:36:03 20:37:03 10° 272° (W) 20:38:04 137.9125
CINEMA 3 25 Sep 20:37:21 20:41:35 38° 262° (W) 20:45:39 145.822/145.860
AAUSAT CUBESAT 2 25 Sep 20:38:35 20:42:41 62° 74° (ENE) 20:46:49 437.432
FUNcube-1 25 Sep 20:44:23 20:47:51 26° 69° (ENE) 20:51:19 145.935
DOVE 4 25 Sep 20:47:28 20:48:37 11° 272° (W) 20:49:45 437.250
DELFI C3 25 Sep 20:48:18 20:49:59 12° 63° (ENE) 20:51:40 145.870
UWE-3 25 Sep 20:49:05 20:53:08 51° 73° (ENE) 20:57:10 435.000/436.395/437.385
DANDE 25 Sep 20:54:00 20:58:50 84° 98° (E) 21:05:25 436.750
STRAND 1 25 Sep 21:12:58 21:17:52 46° 290° (WNW) 21:22:46 437.568
COMPASS 1 25 Sep 21:20:41 21:24:30 34° 263° (W) 21:28:20 437.405
RS-15 25 Sep 21:21:47 21:33:25 89° 124° (SE) 21:45:44 29.354- 29.394
ZACube-1 25 Sep 21:24:09 21:28:18 80° 76° (ENE) 21:32:27 437.345
Oscar 11 25 Sep 21:26:51 21:31:09 84° 76° (ENE) 21:35:31 145.826/435.025
CUSAT 1 25 Sep 21:30:57 21:36:05 25° 298° (WNW) 21:42:04 437.405
CUTE 1.7 + AOD 2 25 Sep 21:41:14 21:42:29 11° 271° (W) 21:43:45 437.475
ISS 25 Sep 21:41:49 21:44:59 49° 141° (SE) 21:48:10 145.825
SEEDS 25 Sep 21:46:27 21:48:34 14° 270° (W) 21:50:41 437.485
HO-68 25 Sep 21:47:32 21:52:37 20° 269° (W) 21:57:42 435.675
AO-85 25 Sep 21:51:34 21:56:35 48° 118° (ESE) 22:01:20 145.980
Cosmos 2499 25 Sep 21:55:06 22:01:51 38° 272° (W) 22:09:03 435.465 / 435.565
CUBEBUG 2 25 Sep 22:03:45 22:06:25 16° 268° (W) 22:09:04 437.445
HUMSAT D 25 Sep 22:06:51 22:10:43 45° 72° (ENE) 22:14:39 437.325/437.525
PRISM 25 Sep 22:07:40 22:11:50 79° 104° (ESE) 22:15:56 437.425
AAUSAT CUBESAT 2 25 Sep 22:17:11 22:18:34 11° 271° (W) 22:19:56 437.432
DELFI C3 25 Sep 22:20:22 22:24:18 59° 259° (W) 22:28:17 145.870
FUNcube-1 25 Sep 22:20:35 22:24:03 25° 265° (W) 22:27:31 145.935
GONETS M04 25 Sep 22:21:18 22:28:09 26° 279° (W) 22:34:57
ANTELSAT 25 Sep 22:24:35 22:27:21 16° 92° (E) 22:30:08 437.575/2403.000
UWE-3 25 Sep 22:27:50 22:29:55 13° 269° (W) 22:31:59 435.000/436.395/437.385
DANDE 25 Sep 22:39:46 22:42:58 15° 305° (NW) 22:46:39 436.750
TIGRISAT 25 Sep 22:45:08 22:48:46 25° 95° (E) 22:52:27 435.000
50 SAT 25 Sep 23:01:53 23:03:18 12° 63° (ENE) 23:04:42 437.505
SO-50 25 Sep 23:03:31 23:04:56 11° 31° (NNE) 23:06:21 436.795
AISAT 25 Sep 23:09:50 23:13:10 21° 65° (ENE) 23:16:31 437.250
JAS-2 25 Sep 23:11:46 23:13:58 11° 81° (E) 23:16:09 435.910
AUBIESAT-1 25 Sep 23:12:32 23:15:24 19° 62° (ENE) 23:18:08 437.475
ISS 25 Sep 23:18:42 23:21:36 29° 339° (NNW) 23:24:31 145.825
SPROUT 25 Sep 23:21:52 23:24:05 14° 63° (ENE) 23:26:18 437.525
UNISAT 6 25 Sep 23:24:25 23:28:48 71° 103° (ESE) 23:33:15 437.425
UKube-1 25 Sep 23:30:31 23:33:14 16° 63° (ENE) 23:35:57 .
AO-85 25 Sep 23:32:53 23:37:14 27° 314° (NW) 23:41:22 145.980
QB50P1 25 Sep 23:34:42 23:36:04 11° 90° (E) 23:37:26 145.935-145.965
RS-15 25 Sep 23:36:59 23:47:40 36° 329° (NNW) 23:58:48 29.354- 29.394
ESTCUBE 1 25 Sep 23:42:37 23:47:08 84° 77° (ENE) 23:51:43 437.505/2401.250
HUMSAT D 25 Sep 23:44:15 23:46:36 15° 269° (W) 23:48:58 437.325/437.525
PRISM 25 Sep 23:45:57 23:46:28 10° 300° (WNW) 23:47:00 437.425
M-CUBED/EXP-1 PRIME 25 Sep 23:46:21 23:50:28 54° 69° (ENE) 23:54:18 437.505
POPSAT HIP 1 25 Sep 23:46:56 23:49:30 16° 92° (E) 23:52:03 437.405
VELOX 1 25 Sep 23:52:29 23:56:49 53° 72° (ENE) 00:01:11 145.980
DX 1 25 Sep 23:52:57 23:56:56 35° 69° (ENE) 00:00:55 434.975-435.025
ANTELSAT 26 Sep 00:00:05 00:04:18 48° 288° (WNW) 00:08:36 437.575/2403.000
CUBEBUG 1 26 Sep 00:02:56 00:07:22 88° 84° (E) 00:11:50 437.445
NANOSAT C BR1 26 Sep 00:04:19 00:07:42 23° 95° (E) 00:11:04 145.865
TIGRISAT 26 Sep 00:21:37 00:25:28 31° 291° (WNW) 00:29:22 435.000
QB50P2 26 Sep 00:24:56 00:28:59 44° 99° (E) 00:33:01 145.880/145.840
POLYITAN 1 26 Sep 00:27:09 00:31:13 44° 99° (E) 00:35:16 437.675
50 SAT 26 Sep 00:32:50 00:36:22 49° 260° (W) 00:39:56 437.505
SO-50 26 Sep 00:41:58 00:46:29 54° 52° (NE) 00:50:53 436.795
AISAT 26 Sep 00:45:12 00:49:23 39° 261° (W) 00:53:35 437.250
AUBIESAT-1 26 Sep 00:45:47 00:49:39 38° 256° (WSW) 00:53:18 437.475
TISAT 1 26 Sep 00:49:30 00:52:53 24° 67° (ENE) 00:56:17 437.305
JAS-2 26 Sep 00:52:35 01:00:25 63° 100° (E) 01:07:56 435.910
SPROUT 26 Sep 00:55:20 00:59:33 58° 259° (W) 01:03:47 437.525
ISS 26 Sep 00:56:36 00:58:51 17° 359° (N) 01:01:07 145.825
UNISAT 6 26 Sep 01:03:09 01:04:57 12° 298° (WNW) 01:06:47 437.425
UKube-1 26 Sep 01:04:40 01:08:52 50° 260° (W) 01:13:06 .
QB50P1 26 Sep 01:08:05 01:12:15 63° 286° (WNW) 01:16:24 145.935-145.965
DUCHIFAT 1 26 Sep 01:08:35 01:12:46 71° 285° (WNW) 01:16:55 145.980
BUGSAT 1 26 Sep 01:20:48 01:24:47 63° 101° (E) 01:28:46 437.445
POPSAT HIP 1 26 Sep 01:21:30 01:25:31 45° 288° (WNW) 01:29:31 437.405
M-CUBED/EXP-1 PRIME 26 Sep 01:23:06 01:25:10 13° 262° (W) 01:27:10 437.505
DX 1 26 Sep 01:29:46 01:33:11 22° 265° (W) 01:36:37 434.975-435.025
VELOX 1 26 Sep 01:31:02 01:33:35 15° 269° (W) 01:36:09 145.980
ITUPSAT 1 26 Sep 01:35:47 01:38:56 18° 62° (ENE) 01:42:05 437.325
BEESAT 3 26 Sep 01:38:54 01:42:29 36° 116° (ESE) 01:46:07 437.485
NANOSAT C BR1 26 Sep 01:39:46 01:43:26 30° 291° (WNW) 01:47:07 145.865
SWISSCUBE 26 Sep 01:49:14 01:53:09 26° 66° (ENE) 01:57:06 437.505
RS-15 26 Sep 01:55:31 02:05:10 26° 4° (N) 02:14:54 29.354- 29.394
QB50P2 26 Sep 02:01:42 02:04:27 17° 295° (WNW) 02:07:11 145.880/145.840
BEESAT 26 Sep 02:02:12 02:06:21 31° 67° (ENE) 02:10:33 436.000
POLYITAN 1 26 Sep 02:03:56 02:06:41 17° 295° (WNW) 02:09:25 437.675
Cosmos 2491 26 Sep 02:05:44 02:14:15 48° 74° (ENE) 02:22:39 435.465 / 435.565
SO-50 26 Sep 02:23:29 02:26:31 18° 250° (WSW) 02:29:29 436.795
TISAT 1 26 Sep 02:24:45 02:28:25 29° 263° (W) 02:32:06 437.305
BEESAT 2 26 Sep 02:29:15 02:33:08 64° 121° (ESE) 02:37:06 435.950
ISS 26 Sep 02:33:16 02:36:08 27° 19° (NNE) 02:39:00 145.825
Oscar 19 26 Sep 02:36:39 02:41:50 72° 102° (ESE) 02:46:57 437.125/150
JAS-2 26 Sep 02:38:13 02:44:52 32° 299° (WNW) 02:51:23 435.910
KKS-1 26 Sep 02:56:07 02:57:59 13° 60° (ENE) 02:59:52 437.445
BUGSAT 1 26 Sep 02:58:13 02:59:39 12° 298° (WNW) 03:01:06 437.445
YUBILEINY 26 Sep 03:07:05 03:15:17 46° 88° (E) 03:23:27 435.215
ITUPSAT 1 26 Sep 03:11:40 03:16:20 55° 260° (W) 03:21:02 437.325
Gurwin Techsat 1B 26 Sep 03:16:12 03:21:33 79° 103° (ESE) 03:26:53 435.225
BEESAT 3 26 Sep 03:17:04 03:20:14 23° 315° (NW) 03:23:27 437.485
ITAMSAT 1 26 Sep 03:25:16 03:29:40 27° 95° (E) 03:34:03 435.822/435.867
SWISSCUBE 26 Sep 03:26:28 03:30:48 35° 263° (W) 03:35:10 437.505
Cosmos 2504 26 Sep 03:32:17 03:37:36 22° 82° (E) 03:42:46 435.465 / 435.565
STARS 26 Sep 03:35:13 03:37:45 15° 63° (ENE) 03:40:19 437.465
BEESAT 26 Sep 03:40:00 03:44:06 29° 264° (W) 03:48:15 436.000
MOZHAYETS 4 26 Sep 03:48:04 03:52:33 60° 73° (ENE) 03:57:05
Cosmos 2491 26 Sep 04:02:55 04:10:53 40° 274° (W) 04:18:49 435.465 / 435.565
BEESAT 2 26 Sep 04:08:51 04:11:22 16° 319° (NW) 04:13:54 435.950
ISS 26 Sep 04:09:34 04:12:49 60° 218° (SW) 04:16:04 145.825
RS-15 26 Sep 04:10:30 04:22:10 44° 37° (NE) 04:33:38 29.354- 29.394
AO-7 26 Sep 04:10:31 04:18:08 38° 98° (E) 04:25:40 29.400- 29.500
Oscar 19 26 Sep 04:17:28 04:20:33 16° 300° (WNW) 04:23:36 437.125/150
KKS-1 26 Sep 04:29:30 04:33:57 73° 258° (WSW) 04:38:25 437.445
AIST 2 26 Sep 04:32:37 04:36:32 46° 118° (ESE) 04:40:31 435.215
CUSAT 1 26 Sep 04:41:57 04:44:34 12° 51° (NE) 04:47:04 437.405
AIST 1 26 Sep 04:56:46 04:59:17 15° 85° (E) 05:01:48
Gurwin Techsat 1B 26 Sep 04:57:50 05:00:50 15° 301° (WNW) 05:03:49 435.225
CUBESAT XI-V 26 Sep 05:01:50 05:06:21 48° 71° (ENE) 05:10:53 437.345
YUBILEINY 26 Sep 05:03:59 05:12:08 41° 288° (WNW) 05:20:19 435.215
PCSat 26 Sep 05:04:04 05:09:13 47° 113° (ESE) 05:14:24 145.827
ITAMSAT 1 26 Sep 05:04:23 05:09:13 39° 292° (WNW) 05:14:02 435.822/435.867
STARS 26 Sep 05:09:21 05:13:40 56° 259° (W) 05:18:00 437.465
Cosmos 2504 26 Sep 05:22:52 05:30:16 67° 280° (W) 05:37:27 435.465 / 435.565
MOZHAYETS 4 26 Sep 05:27:48 05:30:07 14° 270° (W) 05:32:28
HORYU 2 26 Sep 05:40:29 05:44:17 27° 96° (E) 05:48:05 437.375
DANDE 26 Sep 05:49:02 05:54:33 19° 59° (ENE) 05:59:59 436.750
AO-7 26 Sep 06:03:09 06:11:03 51° 297° (WNW) 06:18:56 29.400- 29.500
AIST 2 26 Sep 06:12:03 06:15:14 21° 317° (NW) 06:18:27 435.215
CUSAT 1 26 Sep 06:20:53 06:28:38 54° 73° (ENE) 06:35:17 437.405
AO-85 26 Sep 06:23:01 06:27:05 44° 51° (NE) 06:30:52 145.980
RS-15 26 Sep 06:23:22 06:35:40 72° 243° (WSW) 06:47:39 29.354- 29.394
BRITE-PL 26 Sep 06:31:35 06:36:26 54° 99° (E) 06:40:52 437.365/2234.400
AIST 1 26 Sep 06:32:12 06:36:27 47° 282° (WNW) 06:40:43
GOMX 1 26 Sep 06:32:30 06:35:57 22° 92° (E) 06:39:15 467.674
NOAA 15 26 Sep 06:39:03 06:43:42 30° 96° (E) 06:48:18 137.62
CUBESAT XI-V 26 Sep 06:40:43 06:43:58 18° 268° (W) 06:47:14 437.345
Cubesat XI-IV 26 Sep 06:47:33 06:52:12 29° 95° (E) 06:56:51 437.490
PCSat 26 Sep 06:48:07 06:52:49 29° 312° (NW) 06:57:31 145.827
CUTE-I 26 Sep 06:48:22 06:53:04 30° 96° (E) 06:57:45 437.470
STRAND 1 26 Sep 06:50:56 06:55:30 35° 67° (ENE) 07:00:06 437.568
DOVE 4 26 Sep 07:04:40 07:07:42 19° 92° (E) 07:10:41 437.250
NOAA 18 26 Sep 07:11:34 07:16:40 38° 98° (E) 07:21:44 137.9125
HORYU 2 26 Sep 07:16:57 07:20:48 29° 292° (WNW) 07:24:39 437.375
Cosmos 2504 26 Sep 07:23:04 07:25:09 11° 302° (WNW) 07:27:14 435.465 / 435.565
HO-68 26 Sep 07:27:00 07:29:45 12° 86° (E) 07:32:29 435.675
DANDE 26 Sep 07:30:17 07:38:41 76° 79° (ENE) 07:46:42 436.750
GONETS M04 26 Sep 07:33:45 07:38:10 15° 74° (ENE) 07:42:35
LilacSat-2 26 Sep 07:35:46 07:39:36 77° 284° (WNW) 07:43:26 437.200
CANX-2 26 Sep 07:48:41 07:50:41 13° 90° (E) 07:52:38 2200.000
CUTE 1.7 + AOD 2 26 Sep 07:48:42 07:49:45 11° 89° (E) 07:50:48 437.475
AO-7 26 Sep 07:58:50 08:01:54 13° 319° (NW) 08:04:58 29.400- 29.500
CUSAT 1 26 Sep 08:03:30 08:10:12 32° 275° (W) 08:16:06 437.405
AO-85 26 Sep 08:04:25 08:07:04 17° 250° (WSW) 08:09:39 145.980
GOMX 1 26 Sep 08:10:07 08:14:10 33° 291° (WNW) 08:18:00 467.674
BRITE-PL 26 Sep 08:11:10 08:14:22 18° 299° (WNW) 08:17:27 437.365/2234.400
O/OREOS (USA 219) 26 Sep 08:11:29 08:16:02 76° 110° (ESE) 08:20:38 437.305
NOAA 15 26 Sep 08:18:40 08:23:29 36° 293° (WNW) 08:28:17 137.62
Cubesat XI-IV 26 Sep 08:27:26 08:32:19 37° 293° (WNW) 08:37:12 437.490
CUTE-I 26 Sep 08:28:16 08:33:08 36° 293° (WNW) 08:37:59 437.470
STRAND 1 26 Sep 08:30:16 08:34:41 29° 264° (W) 08:39:08 437.568
CINEMA 3 26 Sep 08:30:42 08:34:42 43° 99° (E) 08:38:42 145.822/145.860
RS-15 26 Sep 08:38:54 08:45:48 17° 265° (W) 08:52:38 29.354- 29.394
Cosmos 2499 26 Sep 08:40:41 08:46:48 31° 86° (E) 08:52:49 435.465 / 435.565
DOVE 4 26 Sep 08:41:42 08:45:34 35° 290° (WNW) 08:49:20 437.250
NOAA 18 26 Sep 08:52:29 08:57:11 30° 295° (WNW) 09:01:53 137.9125
PRISM 26 Sep 08:57:18 09:01:25 61° 74° (ENE) 09:05:33 437.425
COMPASS 1 26 Sep 09:02:25 09:06:16 34° 97° (E) 09:10:06 437.405
HO-68 26 Sep 09:11:26 09:18:37 75° 105° (ESE) 09:25:45 435.675
ZACube-1 26 Sep 09:12:43 09:15:09 15° 91° (E) 09:17:36 437.345
DANDE 26 Sep 09:14:13 09:20:40 26° 277° (W) 09:26:56 436.750
Oscar 11 26 Sep 09:14:39 09:17:07 15° 91° (E) 09:19:35 145.826/435.025
CUTE 1.7 + AOD 2 26 Sep 09:21:46 09:26:03 69° 285° (WNW) 09:30:19 437.475
ANTELSAT 26 Sep 09:24:47 09:27:21 16° 64° (ENE) 09:29:55 437.575/2403.000
